Bennington, VT

10:58 PM EDT on July 26, 2017 (GMT -0400)
Morse State

Weather History for KDDH - February, 2014

Change the Weather History Date:

Friday, February 14, 2014

  Actual Average Record
Temperature  
Mean Temperature 27 °F 25 °F  
Max Temperature 33 °F 34 °F 35 °F (2017)
Min Temperature 21 °F 15 °F -17 °F (2016)
Degree Days  
Heating Degree Days 38 40  
Month to date heating degree days 593 581  
Since 1 July heating degree days 4663 4712  
Cooling Degree Days 0 0  
Month to date cooling degree days 0 0  
Year to date cooling degree days 0 0  
Moisture  
Dew Point 19 °F    
Average Humidity 75    
Maximum Humidity 92    
Minimum Humidity 58    
Precipitation  
Precipitation 0.71 in 0.08 in 0.71 in (2014)
Month to date precipitation 1.56 1.01  
Year to date precipitation 4.48 3.76  
Sea Level Pressure  
Sea Level Pressure 29.25 in    
Wind  
Wind Speed 10 mph (West)    
Max Wind Speed 24 mph    
Max Gust Speed 36 mph    
Visibility 4 miles    
Events Fog , Snow    
T = Trace of Precipitation, MM = Missing Value Source: NWS Daily Summary

Daily Weather History Graph

Daily Weather History Graph

Search for Another Location

Airport or City:

Trip Planner

Search our weather history database for the weather conditions in past years. The results will help you decide how hot, cold, wet, or windy it might be!

Date:

Astronomy

Feb. 14, 2014 Rise Set
Actual Time 6:51 AM EST 5:23 PM EST
Civil Twilight 6:22 AM EST 5:52 PM EST
Nautical Twilight 5:49 AM EST 6:25 PM EST
Astronomical Twilight 5:16 AM EST 6:58 PM EST
Moon 5:25 PM EST (2/14) 6:16 AM EST (2/14)
Length of Visible Light 11h 29m
Length of Day
10h 31m
Full, 100% of the Moon is Illuminated
Feb 14
Full
Feb 14
Full
Feb 22
Last Quarter
Mar 1
New
Mar 8
First Quarter

Hourly Weather History & Observations

Time (EST) Temp. Windchill Dew Point Humidity Pressure Visibility Wind Dir Wind Speed Gust Speed Precip Events Conditions
12:31 AM 25.0 °F 18.1 °F 21.0 °F 85% 29.06 in 1.8 mi SSW 5.8 mph - 0.02 in Snow Light Snow
12:46 AM 25.0 °F 16.3 °F 21.0 °F 85% 29.05 in 0.8 mi WSW 8.1 mph - 0.04 in Snow Light Snow
12:54 AM 25.0 °F 17.1 °F 21.0 °F 85% 29.08 in 0.5 mi Variable 6.9 mph - 0.06 in Fog , Snow Snow
12:57 AM 24.1 °F 15.2 °F 21.0 °F 88% 29.06 in 0.2 mi SW 8.1 mph - 0.01 in Fog , Snow Heavy Snow
1:15 AM 23.0 °F 15.8 °F 19.9 °F 88% 29.08 in 0.2 mi Variable 5.8 mph - 0.08 in Fog , Snow Heavy Snow
1:54 AM 21.9 °F 14.5 °F 19.0 °F 89% 29.08 in 0.2 mi WNW 5.8 mph - 0.24 in Fog , Snow Heavy Snow
2:14 AM 21.9 °F 11.7 °F 18.0 °F 85% 29.02 in 0.5 mi NNW 9.2 mph 16.1 mph 0.04 in Fog , Snow Snow
2:24 AM 21.9 °F 11.7 °F 18.0 °F 85% 29.02 in 0.5 mi NNW 9.2 mph - 0.04 in Fog , Snow Snow
2:54 AM 21.0 °F 9.9 °F 18.0 °F 88% 29.03 in 0.8 mi NW 10.4 mph 19.6 mph 0.06 in Snow Light Snow
3:02 AM 21.0 °F 11.4 °F 17.1 °F 85% 29.00 in 0.8 mi NW 8.1 mph 19.6 mph 0.00 in Snow Light Snow
3:15 AM 21.9 °F 10.4 °F 17.1 °F 82% 29.00 in 1.0 mi NW 11.5 mph - 0.01 in Snow Light Snow
3:23 AM 21.9 °F 10.4 °F 17.1 °F 82% 29.00 in 0.5 mi NW 11.5 mph - 0.01 in Snow Snow
3:37 AM 21.0 °F 11.4 °F 18.0 °F 88% 29.01 in 0.2 mi NW 8.1 mph - 0.03 in Fog , Snow Heavy Snow
3:49 AM 21.2 °F 9.5 °F 17.6 °F 86% 29.02 in 0.2 mi NNW 11.5 mph 18.4 mph 0.05 in Fog , Snow Heavy Snow
3:54 AM 21.0 °F 11.4 °F 18.0 °F 88% 29.05 in 0.2 mi NW 8.1 mph - 0.06 in Fog , Snow Heavy Snow
4:54 AM 21.0 °F 11.4 °F 18.0 °F 88% 29.06 in 0.2 mi NW 8.1 mph - 0.14 in Fog , Snow Heavy Snow
5:26 AM 21.0 °F 12.4 °F 18.0 °F 88% 29.04 in 0.5 mi NW 6.9 mph - 0.05 in Fog , Snow Snow
5:41 AM 21.0 °F 12.4 °F 18.0 °F 88% 29.04 in 0.5 mi NW 6.9 mph - 0.06 in Fog , Snow Snow
5:49 AM 21.2 °F 12.6 °F 17.6 °F 86% 29.04 in 1.0 mi WNW 6.9 mph - 0.06 in Snow Light Snow
5:54 AM 21.9 °F 13.4 °F 18.0 °F 85% 29.07 in 1.0 mi WNW 6.9 mph - 0.06 in Snow Light Snow
6:54 AM 23.0 °F 13.1 °F 18.0 °F 81% 29.09 in 1.0 mi NNW 9.2 mph 17.3 mph 0.02 in Snow Light Snow
7:21 AM 23.0 °F 15.8 °F 19.0 °F 85% 29.08 in 0.5 mi NW 5.8 mph - 0.01 in Fog , Snow Snow
7:39 AM 23.0 °F 15.8 °F 19.0 °F 85% 29.08 in 1.0 mi WNW 5.8 mph - 0.03 in Snow Light Snow
7:50 AM 23.0 °F 12.4 °F 19.4 °F 86% 29.09 in 0.8 mi West 10.4 mph - 0.03 in Snow Light Snow
7:54 AM 23.0 °F 11.7 °F 19.0 °F 85% 29.12 in 1.0 mi West 11.5 mph - 0.04 in Snow Light Snow
8:18 AM 21.9 °F 12.5 °F 18.0 °F 85% 29.10 in 0.8 mi WNW 8.1 mph - 0.01 in Snow Light Snow
8:25 AM 21.9 °F 12.5 °F 18.0 °F 85% 29.11 in 0.8 mi West 8.1 mph - 0.01 in Snow Light Snow
8:54 AM 23.0 °F 11.1 °F 18.0 °F 81% 29.16 in 0.5 mi West 12.7 mph 26.5 mph 0.01 in Snow Snow
9:11 AM 23.0 °F 14.7 °F 18.0 °F 81% 29.14 in 0.2 mi WSW 6.9 mph 20.7 mph 0.00 in Snow Heavy Snow
9:23 AM 21.9 °F 10.4 °F 17.1 °F 82% 29.15 in 0.2 mi West 11.5 mph 21.9 mph 0.01 in Snow Heavy Snow
9:46 AM 21.9 °F 9.8 °F 17.1 °F 82% 29.16 in 0.5 mi WSW 12.7 mph - 0.01 in Snow Snow
9:54 AM 21.9 °F 10.4 °F 18.0 °F 85% 29.19 in 0.5 mi West 11.5 mph 18.4 mph 0.01 in Fog , Snow Light Snow
10:16 AM 23.0 °F 12.4 °F 17.1 °F 78% 29.18 in 1.2 mi West 10.4 mph 19.6 mph 0.00 in Snow Light Snow
10:26 AM 24.1 °F 13.7 °F 17.1 °F 75% 29.19 in 3.0 mi West 10.4 mph 20.7 mph 0.00 in Snow Light Snow
10:41 AM 25.0 °F 12.2 °F 17.1 °F 72% 29.19 in 2.0 mi WSW 16.1 mph 27.6 mph 0.00 in Snow Light Snow
10:54 AM 25.0 °F 11.7 °F 17.1 °F 72% 29.23 in 2.5 mi West 17.3 mph 25.3 mph 0.00 in Snow Light Snow
11:07 AM 26.1 °F 13.6 °F 17.1 °F 69% 29.21 in 4.0 mi West 16.1 mph 25.3 mph 0.00 in Snow Light Snow
11:19 AM 27.0 °F 16.1 °F 17.1 °F 66% 29.22 in 9.0 mi WSW 12.7 mph 25.3 mph 0.00 in   Overcast
11:54 AM 27.0 °F 14.7 °F 17.1 °F 66% 29.26 in 10.0 mi West 16.1 mph 26.5 mph 0.00 in   Overcast
12:54 PM 28.0 °F 19.3 °F 18.0 °F 66% 29.31 in 10.0 mi SW 9.2 mph 26.5 mph N/A   Overcast
1:19 PM 28.0 °F 18.6 °F 19.0 °F 69% 29.30 in 1.8 mi WSW 10.4 mph 21.9 mph 0.00 in Snow Light Snow
1:30 PM 28.0 °F 20.0 °F 21.0 °F 75% 29.30 in 1.0 mi WSW 8.1 mph 23.0 mph 0.00 in Snow Light Snow
1:37 PM 28.0 °F 19.3 °F 21.0 °F 75% 29.31 in 0.8 mi WSW 9.2 mph - 0.00 in Snow Light Snow
1:54 PM 28.0 °F 17.0 °F 21.0 °F 75% 29.34 in 0.5 mi WSW 13.8 mph 23.0 mph 0.01 in Snow Snow
2:36 PM 28.0 °F 20.0 °F 21.9 °F 78% 29.34 in 1.2 mi WSW 8.1 mph - 0.00 in Snow Light Snow
2:44 PM 28.9 °F 21.1 °F 21.0 °F 72% 29.35 in 3.0 mi West 8.1 mph 18.4 mph 0.00 in Snow Light Snow
2:54 PM 30.0 °F 20.0 °F 19.9 °F 66% 29.39 in 7.0 mi WSW 12.7 mph 19.6 mph 0.00 in Snow Light Snow
3:54 PM 30.0 °F 19.5 °F 19.9 °F 66% 29.44 in 9.0 mi West 13.8 mph 31.1 mph 0.00 in   Overcast
4:31 PM 30.0 °F 17.9 °F 18.0 °F 61% 29.45 in 10.0 mi WNW 18.4 mph 33.4 mph N/A   Mostly Cloudy
4:54 PM 30.0 °F 19.5 °F 18.0 °F 61% 29.50 in 10.0 mi WNW 13.8 mph 25.3 mph N/A   Mostly Cloudy
5:54 PM 28.9 °F 19.8 °F 19.0 °F 67% 29.56 in 10.0 mi West 10.4 mph 20.7 mph N/A   Mostly Cloudy
6:36 PM 28.9 °F 18.2 °F 19.0 °F 67% 29.56 in 10.0 mi WSW 13.8 mph 19.6 mph N/A   Mostly Cloudy
6:51 PM 28.4 °F 19.7 °F 19.4 °F 69% 29.57 in 10.0 mi WSW 9.2 mph - N/A   Mostly Cloudy
6:54 PM 28.9 °F 21.9 °F 19.0 °F 67% 29.60 in 10.0 mi Variable 6.9 mph - N/A   Scattered Clouds
7:54 PM 30.0 °F 24.1 °F 19.0 °F 64% 29.64 in 10.0 mi Variable 5.8 mph - N/A   Overcast
8:54 PM 30.0 °F 26.5 °F 19.0 °F 64% 29.70 in 10.0 mi Variable 3.5 mph - N/A   Overcast
9:54 PM 28.9 °F 19.2 °F 18.0 °F 64% 29.70 in 10.0 mi West 11.5 mph - N/A   Overcast
10:21 PM 28.9 °F 21.1 °F 19.0 °F 67% 29.68 in 10.0 mi WSW 8.1 mph - N/A   Overcast
10:54 PM 28.9 °F 21.9 °F 19.0 °F 67% 29.72 in 10.0 mi Variable 6.9 mph - N/A   Overcast
11:27 PM 28.9 °F 21.1 °F 19.0 °F 67% 29.69 in 9.0 mi WSW 8.1 mph - N/A   Overcast
11:54 PM 28.9 °F 25.2 °F 18.0 °F 64% 29.74 in 9.0 mi Variable 3.5 mph - N/A   Overcast